STARLINK-1679, 46557

Orbit data source: Space-Track

STARLINK-1679, 46557 is a payload satellite owned by SpaceX/Seattle (US) in LEO that was launched on Tue, 06 Oct 2020 UTC via an FALCON 9 launch vehicle from the Air Force Eastern Test Range (AFETR). Payloads include a variety of satellites, spacecraft, and rockets equipped with specific instruments for various scientific and technological missions. These include communications satellites like Starlink; space stations such as the ISS; scientific satellites like the Hubble; Earth observation satellites from companies like Planet Labs, Umbra, and HawkEye 360; GPS; miniature CubeSats for education and research; and military/defense satellites.

Loading next visibility...
STARLINK-1679 details
Identifier
46557, 2020-070AB
Orbit
LEO
Last TLE update2 days ago
Origin
Flag of USSpaceX/Seattle (US)
ManufacturerSpaceX/Seattle
MissionOperational Commercial Communications
Bus & MotorSTARLINK, Unknown motor
Mass260 kg wet, ~248 kg dry
Launch date (UTC)
2020-10-06 (4 years ago)
Launch vehicle
FALCON 9
Launch site
Air Force Eastern Test Range (AFETR)
Object type
Payload
Rocket body
Debris
Shape & HBRBox + 1 Pan, 8.86 m
Radar Cross Section13.562 m², Large (>1 m²)

Expand to show TLE details & history

TLE from 2 days ago
0 STARLINK-1679
1 46557U 20070AB  24347.50968595  .00041807  00000-0  28056-2 0  9996
2 46557  53.0560  30.9053 0001966  96.4404 263.6809 15.06444536231588
Epoch: 2024-12-12T12:13Z
Definitive object data (Epoch: 2024-12-12T12:13:56.866Z)
Latitude
Longitude125.72937°
Altitude548.105 km
Speed7.589 km/s
True Right ascension02h 03m 37s
True Declination0° 00' 00"
Sunlit
Object was in full shadow at TLE epoch
Visualization TLE readout
Latitude-2.28636°
Longitude116.57197°
Altitude548.186 km
Speed7.589 km/s
Apparent Right ascension23h 17m 15s
Apparent Declination-58° 40' 36"
Sunlit
Object is in full shadow
Visualization observer readout
Local Sidereal Time02:34:18
Azimuth204.289° SW
Elevation-16.735°
Doppler factor1
Orbital elements
Apogee altitude548.707 km
Perigee altitude545.984 km
Semi-major axis6,925.483 km
Eccentricity0.0001966
Inclination53.056°
RAAN30.9053°
Arg. of periapsis96.4404°
True anomaly263.65851°
Mean anomaly263.6809°
Eccentric anomaly263.6697°
Mean motion3.76589 °/min
BSTAR0.0028056
Orbital period95.59 mins
Loading maneuver chart data...
Loading historical data...
Loading historical data...
Loading historical data...
Loading historical data...
Loading historical data...
Loading historical data...
Loading historical data...

STARLINK-1679 Visibility forecast

Observer location: undefined°, undefined

Span
Click to sort rows by Start time (UTC) header in descending order
Start Az.
Max El. time (UTC)
Max El. Az.
Max El.
End time (UTC)
End Az.
4 mins2024-12-14 04:11:29.544Z160.055° S2024-12-14 04:13:29.544Z126.882° SE16.407°2024-12-14 04:15:29.544Z93.714° ESE
6 mins2024-12-14 05:50:29.544Z247.253° WSW2024-12-14 05:52:29.544Z311.391° NW42.164°2024-12-14 05:56:29.544Z45.18° ENE
4 mins2024-12-14 07:31:29.544Z318.857° NNW2024-12-14 07:32:29.544Z337.034° NNW17.217°2024-12-14 07:35:29.544Z25.392° NE
5 mins2024-12-14 10:52:29.544Z347.145° N2024-12-14 10:54:29.544Z30.174° NE22.668°2024-12-14 10:57:29.544Z79.869° E
6 mins2024-12-14 12:31:29.544Z300.65° NW2024-12-14 12:34:29.544Z186.226° SSW41.054°2024-12-14 12:37:29.544Z142.642° SSE
|